Weather History for Jennings, LA

Change the Weather History Date:

Sunday, February 17, 2013

  Actual Average (KLCH) Record (KLCH)
Temperature  
Mean Temperature 50 °F 55 °F  
Max Temperature 64 °F 65 °F 80 °F (1911)
Min Temperature 37 °F 46 °F 20 °F (1903)
Degree Days  
Heating Degree Days 14 10  
Month to date heating degree days 194  
Since 1 July heating degree days 1185  
Cooling Degree Days 0 0  
Month to date cooling degree days 0  
Year to date cooling degree days 10  
Moisture  
Dew Point 39 °F    
Average Humidity 65    
Maximum Humidity 87    
Minimum Humidity 45    
Precipitation  
Precipitation 0.00 in 0.12 in 3.31 in (1961)
Month to date precipitation 2.18  
Year to date precipitation 7.41  
Snow  
Snow 0.00 in 0.00 in T in (1973)
Month to date snowfall 0.1  
Since 1 July snowfall 0.1  
Snow Depth -    
Sea Level Pressure  
Sea Level Pressure 30.24 in    
Wind  
Wind Speed 5 mph (SSE)    
Max Wind Speed 15 mph    
Max Gust Speed 21 mph    
Visibility 10 miles    
Events      
T = Trace of Precipitation, MM = Missing Value Source: NWS Daily Summary

Daily Weather History Graph

Daily Weather History Graph

Search for Another Location

Airport:

Trip Planner

Search our weather history database for the weather conditions in past years. The results will help you decide how hot, cold, wet, or windy it might be!

Date:

Astronomy

Feb. 17, 2013 Rise Set
Actual Time 6:48 AM CST 6:01 PM CST
Civil Twilight 6:24 AM CST 6:25 PM CST
Nautical Twilight 5:56 AM CST 6:53 PM CST
Astronomical Twilight 5:28 AM CST 7:21 PM CST
Moon 11:15 AM CST (2/17) 12:24 AM CST (2/17)
Length of Visible Light 12h 01m
Length of Day
11h 12m
Waxing Crescent, 49% of the Moon is Illuminated
Feb 17
Waxing Crescent
Feb 17
First Quarter
Feb 25
Full
Mar 4
Last Quarter
Mar 11
New

Hourly Weather History & Observations

Time (CST) Temp. Windchill Dew Point Humidity Pressure Visibility Wind Dir Wind Speed Gust Speed Precip Events Conditions
12:15 AM 37.9 °F - 32.0 °F 79% 30.29 in 10.0 mi Calm Calm - N/A   Clear
12:35 AM 38.1 °F - 32.2 °F 79% 30.28 in 10.0 mi Calm Calm - N/A   Clear
12:55 AM 37.9 °F - 32.5 °F 81% 30.29 in 10.0 mi Calm Calm - N/A   Clear
1:15 AM 38.3 °F - 32.4 °F 79% 30.29 in 10.0 mi Calm Calm - N/A   Clear
1:35 AM 39.0 °F - 32.7 °F 78% 30.28 in 10.0 mi Calm Calm - N/A   Clear
1:55 AM 38.8 °F 36.5 °F 34.0 °F 83% 30.28 in 10.0 mi SE 3.5 mph - N/A   Clear
2:15 AM 38.5 °F 35.0 °F 34.0 °F 84% 30.28 in 10.0 mi SE 4.6 mph - N/A   Clear
2:35 AM 40.3 °F 38.2 °F 34.2 °F 79% 30.28 in 10.0 mi SE 3.5 mph - N/A   Clear
2:55 AM 39.7 °F 37.6 °F 34.5 °F 82% 30.27 in 10.0 mi SE 3.5 mph - N/A   Clear
3:15 AM 40.1 °F 36.9 °F 34.5 °F 80% 30.27 in 10.0 mi SE 4.6 mph - N/A   Clear
3:35 AM 39.7 °F - 34.2 °F 80% 30.27 in 10.0 mi Calm Calm - N/A   Clear
3:55 AM 39.6 °F - 33.8 °F 80% 30.27 in 10.0 mi Calm Calm - N/A   Clear
4:15 AM 39.4 °F 37.2 °F 33.6 °F 80% 30.27 in 10.0 mi SSE 3.5 mph - N/A   Clear
4:35 AM 38.5 °F - 33.8 °F 83% 30.28 in 10.0 mi Calm Calm - N/A   Clear
4:55 AM 37.2 °F 34.7 °F 33.6 °F 87% 30.28 in 10.0 mi SE 3.5 mph - N/A   Clear
5:15 AM 37.6 °F 34.0 °F 33.1 °F 84% 30.28 in 10.0 mi SE 4.6 mph - N/A   Clear
5:35 AM 39.9 °F 36.7 °F 31.1 °F 71% 30.28 in 10.0 mi SE 4.6 mph - N/A   Clear
5:55 AM 40.3 °F 36.3 °F 30.6 °F 68% 30.28 in 10.0 mi SE 5.8 mph - N/A   Clear
6:15 AM 40.1 °F 36.1 °F 30.2 °F 68% 30.28 in 10.0 mi SE 5.8 mph - N/A   Clear
6:35 AM 40.3 °F 36.3 °F 30.6 °F 68% 30.28 in 10.0 mi ESE 5.8 mph - N/A   Clear
6:55 AM 40.8 °F 36.2 °F 29.7 °F 64% 30.29 in 10.0 mi ESE 6.9 mph - N/A   Clear
7:15 AM 41.9 °F 37.5 °F 30.2 °F 63% 30.29 in 10.0 mi ESE 6.9 mph - N/A   Clear
7:35 AM 43.2 °F 37.9 °F 31.8 °F 64% 30.29 in 10.0 mi SE 9.2 mph - N/A   Clear
7:55 AM 45.0 °F 40.1 °F 32.5 °F 62% 30.29 in 10.0 mi ESE 9.2 mph - N/A   Clear
8:15 AM 46.8 °F - 33.3 °F 59% 30.30 in 10.0 mi ESE 9.2 mph - N/A   Clear
8:35 AM 48.7 °F - 34.3 °F 58% 30.30 in 10.0 mi ESE 8.1 mph - N/A   Clear
8:55 AM 50.4 °F - 35.6 °F 57% 30.31 in 10.0 mi ESE 9.2 mph - N/A   Clear
9:15 AM 51.8 °F - 36.7 °F 56% 30.30 in 10.0 mi SE 10.4 mph - N/A   Clear
9:35 AM 52.7 °F - 37.9 °F 57% 30.30 in 10.0 mi ESE 8.1 mph - N/A   Clear
9:55 AM 55.2 °F - 39.0 °F 54% 30.31 in 10.0 mi SSE 10.4 mph - N/A   Clear
10:15 AM 56.3 °F - 39.4 °F 53% 30.30 in 10.0 mi SSE 10.4 mph 16.1 mph N/A   Clear
10:35 AM 57.6 °F - 40.8 °F 54% 30.30 in 10.0 mi SSE 10.4 mph - N/A   Clear
10:55 AM 58.1 °F - 41.0 °F 53% 30.29 in 10.0 mi SSE 11.5 mph 18.4 mph N/A   Clear
11:15 AM 60.1 °F - 42.1 °F 51% 30.29 in 10.0 mi SSE 15.0 mph - N/A   Clear
11:35 AM 61.2 °F - 43.2 °F 52% 30.28 in 10.0 mi South 11.5 mph 20.7 mph N/A   Clear
11:55 AM 61.5 °F - 43.5 °F 52% 30.28 in 10.0 mi South 13.8 mph 19.6 mph N/A   Clear
12:15 PM 62.8 °F - 43.9 °F 50% 30.26 in 10.0 mi South 12.7 mph 17.3 mph N/A   Clear
12:35 PM 63.1 °F - 44.1 °F 50% 30.25 in 10.0 mi South 12.7 mph 18.4 mph N/A   Clear
12:55 PM 63.9 °F - 42.3 °F 45% 30.24 in 10.0 mi South 11.5 mph 18.4 mph N/A   Clear
1:15 PM 63.9 °F - 41.9 °F 45% 30.23 in 10.0 mi South 10.4 mph 18.4 mph N/A   Clear
1:35 PM 64.0 °F - 42.1 °F 45% 30.22 in 10.0 mi SSW 10.4 mph 18.4 mph N/A   Clear
1:55 PM 63.9 °F - 42.1 °F 45% 30.22 in 10.0 mi South 12.7 mph - N/A   Clear
2:15 PM 64.0 °F - 42.1 °F 45% 30.21 in 10.0 mi SSW 11.5 mph 18.4 mph N/A   Clear
2:35 PM 63.5 °F - 41.9 °F 45% 30.21 in 10.0 mi SSW 11.5 mph 19.6 mph N/A   Clear
2:55 PM 63.9 °F - 42.4 °F 46% 30.20 in 10.0 mi South 10.4 mph 18.4 mph N/A   Clear
3:15 PM 63.7 °F - 42.1 °F 45% 30.20 in 10.0 mi SSW 12.7 mph 19.6 mph N/A   Clear
3:35 PM 63.5 °F - 42.1 °F 46% 30.19 in 10.0 mi South 15.0 mph 18.4 mph N/A   Clear
3:55 PM 63.1 °F - 42.4 °F 47% 30.19 in 10.0 mi South 12.7 mph 18.4 mph N/A   Clear
4:15 PM 62.6 °F - 42.1 °F 47% 30.19 in 10.0 mi South 10.4 mph - N/A   Clear
4:35 PM 61.9 °F - 43.0 °F 50% 30.19 in 10.0 mi South 12.7 mph 18.4 mph N/A   Scattered Clouds
4:55 PM 61.3 °F - 43.7 °F 52% 30.19 in 10.0 mi South 9.2 mph 18.4 mph N/A   Clear
5:15 PM 60.4 °F - 43.7 °F 54% 30.19 in 10.0 mi South 11.5 mph 16.1 mph N/A   Clear
5:35 PM 59.7 °F - 43.9 °F 56% 30.19 in 10.0 mi South 9.2 mph - N/A   Clear
5:55 PM 58.3 °F - 44.8 °F 61% 30.18 in 10.0 mi South 6.9 mph - N/A   Clear
6:15 PM 57.2 °F - 44.2 °F 62% 30.18 in 10.0 mi South 5.8 mph - N/A   Clear
6:35 PM 56.3 °F - 44.1 °F 64% 30.18 in 10.0 mi SSE 6.9 mph - N/A   Clear
6:55 PM 56.1 °F - 43.7 °F 63% 30.17 in 10.0 mi SSE 6.9 mph - N/A   Clear
7:15 PM 55.0 °F - 44.1 °F 67% 30.17 in 10.0 mi SE 5.8 mph - N/A   Clear
7:35 PM 55.4 °F - 45.3 °F 69% 30.17 in 10.0 mi SE 6.9 mph - N/A   Clear
7:55 PM 55.0 °F - 45.3 °F 70% 30.17 in 10.0 mi SSE 6.9 mph - N/A   Clear
8:15 PM 54.3 °F - 45.1 °F 71% 30.18 in 10.0 mi SE 5.8 mph - N/A   Clear
8:35 PM 53.2 °F - 46.0 °F 77% 30.18 in 10.0 mi SE 6.9 mph - N/A   Clear
8:55 PM 53.1 °F - 45.9 °F 77% 30.18 in 10.0 mi SE 5.8 mph - N/A   Clear
9:15 PM 52.9 °F - 45.9 °F 77% 30.19 in 10.0 mi SE 6.9 mph - N/A   Clear
9:35 PM 52.7 °F - 46.0 °F 78% 30.18 in 10.0 mi SE 6.9 mph - N/A   Clear
9:55 PM 51.8 °F - 46.2 °F 81% 30.18 in 10.0 mi SE 5.8 mph - N/A   Clear
10:15 PM 51.4 °F - 46.2 °F 82% 30.18 in 10.0 mi SE 5.8 mph - N/A   Clear
10:35 PM 50.9 °F - 46.0 °F 83% 30.18 in 10.0 mi SE 5.8 mph - N/A   Clear
10:55 PM 51.3 °F - 46.0 °F 82% 30.18 in 10.0 mi SE 5.8 mph - N/A   Clear
11:15 PM 50.9 °F - 45.9 °F 83% 30.18 in 10.0 mi SE 5.8 mph - N/A   Clear
11:35 PM 50.9 °F - 45.9 °F 83% 30.17 in 10.0 mi SE 5.8 mph - N/A   Clear
11:55 PM 50.9 °F - 45.7 °F 82% 30.17 in 10.0 mi SE 5.8 mph - N/A   Clear